| time (UTC) | temp C | wind direction | speed KPH | gust KPH | rain 1hr cm | rain 24hr cm | rain mn cm | humidity % | barometer mb |
| 20260904223054 | 19 | 293 | 17.7 | 29.0 | 0.00 | 0.00 | 0.00 | 38 | 1014.8 |
| 20260904221550 | 20 | 307 | 19.3 | 30.6 | 0.00 | 0.00 | 0.00 | 36 | 1014.6 |
| 20260904220148 | 20 | 307 | 24.1 | 33.8 | 0.00 | 0.00 | 0.00 | 35 | 1014.3 |
| 20260904214545 | 21 | 299 | 22.5 | 37.0 | 0.00 | 0.00 | 0.00 | 35 | 1014.2 |
| 20260904213048 | 21 | 306 | 29.0 | 38.6 | 0.00 | 0.00 | 0.00 | 36 | 1014.1 |
| 20260904211540 | 20 | 284 | 19.3 | 33.8 | 0.00 | 0.00 | 0.00 | 37 | 1013.9 |
| 20260904210037 | 18 | 314 | 20.9 | 32.2 | 0.00 | 0.00 | 0.00 | 42 | 1013.9 |
| 20260904204537 | 18 | 301 | 20.9 | 30.6 | 0.00 | 0.00 | 0.00 | 43 | 1013.9 |
| 20260904203041 | 17 | 268 | 22.5 | 30.6 | 0.00 | 0.00 | 0.00 | 44 | 1013.7 |
| 20260904201537 | 17 | 307 | 16.1 | 32.2 | 0.00 | 0.00 | 0.00 | 45 | 1013.6 |
| 20260904200034 | 17 | 287 | 14.5 | 27.4 | 0.00 | 0.00 | 0.00 | 45 | 1013.4 |
| 20260904194530 | 17 | 265 | 14.5 | 25.7 | 0.00 | 0.00 | 0.00 | 46 | 1013.2 |
| 20260904193032 | 17 | 291 | 16.1 | 29.0 | 0.00 | 0.00 | 0.00 | 47 | 1013.0 |
| 20260904191534 | 17 | 277 | 17.7 | 27.4 | 0.00 | 0.00 | 0.00 | 48 | 1012.8 |
| 20260904190026 | 17 | 297 | 17.7 | 25.7 | 0.00 | 0.00 | 0.00 | 50 | 1012.7 |
| 20260904184526 | 16 | 302 | 12.9 | 22.5 | 0.00 | 0.00 | 0.00 | 51 | 1012.5 |
| 20260904183025 | 16 | 248 | 11.3 | 22.5 | 0.00 | 0.00 | 0.00 | 52 | 1012.4 |
| 20260904181523 | 16 | 267 | 12.9 | 20.9 | 0.00 | 0.00 | 0.00 | 52 | 1012.5 |
| 20260904180022 | 16 | 304 | 16.1 | 22.5 | 0.00 | 0.00 | 0.00 | 52 | 1012.3 |
| 20260904174526 | 15 | 295 | 12.9 | 22.5 | 0.00 | 0.00 | 0.00 | 53 | 1012.2 |
| 20260904173023 | 15 | 285 | 12.9 | 27.4 | 0.00 | 0.00 | 0.00 | 54 | 1012.1 |
| 20260904171530 | 15 | 302 | 12.9 | 27.4 | 0.00 | 0.00 | 0.00 | 54 | 1012.1 |
| 20260904170019 | 15 | 292 | 16.1 | 24.1 | 0.00 | 0.00 | 0.00 | 53 | 1011.9 |
| 20260904164520 | 16 | 300 | 16.1 | 20.9 | 0.00 | 0.00 | 0.00 | 52 | 1011.6 |
| 20260904163020 | 16 | 281 | 8.0 | 16.1 | 0.00 | 0.00 | 0.00 | 53 | 1011.4 |
| 20260904161518 | 15 | 303 | 9.7 | 16.1 | 0.00 | 0.00 | 0.00 | 55 | 1011.6 |
| 20260904160017 | 16 | 303 | 11.3 | 17.7 | 0.00 | 0.00 | 0.00 | 52 | 1011.3 |
| 20260904154514 | 18 | 74 | 1.6 | 9.7 | 0.00 | 0.00 | 0.00 | 42 | 1010.7 |
| 20260904153011 | 17 | 53 | 6.4 | 9.7 | 0.00 | 0.00 | 0.00 | 46 | 1010.2 |
| 20260904151509 | 17 | 105 | 6.4 | 12.9 | 0.00 | 0.00 | 0.00 | 47 | 1010.4 |
| 20260904150009 | 17 | 126 | 9.7 | 16.1 | 0.00 | 0.00 | 0.00 | 45 | 1010.4 |
| 20260904144506 | 16 | 153 | 3.2 | 9.7 | 0.00 | 0.00 | 0.00 | 50 | 1010.5 |
| 20260904143001 | 13 | 93 | 4.8 | 8.0 | 0.00 | 0.00 | 0.00 | 56 | 1010.4 |
| 20260904140055 | 11 | 52 | 0.0 | 3.2 | 0.00 | 0.00 | 0.00 | 69 | 1010.3 |
| 20260904134551 | 10 | 229 | 0.0 | 0.0 | 0.00 | 0.00 | 0.00 | 71 | 1010.5 |
| 20260904133049 | 10 | 229 | 0.0 | 1.6 | 0.00 | 0.00 | 0.00 | 76 | 1010.4 |
| 20260904131551 | 8 | 229 | 0.0 | 1.6 | 0.00 | 0.00 | 0.00 | 73 | 1010.4 |
| 20260904130048 | 10 | 79 | 0.0 | 3.2 | 0.00 | 0.00 | 0.00 | 71 | 1010.2 |
| 20260904124558 | 9 | 290 | 0.0 | 1.6 | 0.00 | 0.00 | 0.00 | 71 | 1010.2 |
| 20260904123046 | 9 | 342 | 0.0 | 1.6 | 0.00 | 0.00 | 0.00 | 72 | 1010.4 |
| 20260904121545 | 10 | 28 | 0.0 | 1.6 | 0.00 | 0.00 | 0.00 | 70 | 1010.3 |
| 20260904120048 | 9 | 82 | 0.0 | 0.0 | 0.00 | 0.00 | 0.00 | 74 | 1010.5 |
| 20260904114546 | 9 | 82 | 0.0 | 0.0 | 0.00 | 0.00 | 0.00 | 75 | 1010.2 |
| 20260904113049 | 10 | 82 | 0.0 | 1.6 | 0.00 | 0.00 | 0.00 | 73 | 1010.4 |
| 20260904111541 | 9 | 77 | 0.0 | 1.6 | 0.00 | 0.00 | 0.00 | 74 | 1010.4 |
| 20260904110040 | 10 | 39 | 0.0 | 1.6 | 0.00 | 0.00 | 0.00 | 71 | 1010.4 |
| 20260904104538 | 9 | 39 | 0.0 | 6.4 | 0.00 | 0.00 | 0.00 | 71 | 1010.5 |
| 20260904103041 | 8 | 12 | 0.0 | 3.2 | 0.00 | 0.00 | 0.00 | 72 | 1010.8 |
| 20260904101535 | 8 | 76 | 0.0 | 0.0 | 0.00 | 0.00 | 0.00 | 74 | 1010.9 |
| 20260904100034 | 7 | 76 | 0.0 | 0.0 | 0.00 | 0.00 | 0.00 | 76 | 1010.8 |
| 20260904094535 | 7 | 76 | 0.0 | 1.6 | 0.00 | 0.00 | 0.00 | 76 | 1010.9 |
| 20260904093030 | 7 | 77 | 0.0 | 0.0 | 0.00 | 0.00 | 0.00 | 75 | 1011.2 |
| 20260904091527 | 8 | 111 | 0.0 | 0.0 | 0.00 | 0.00 | 0.00 | 73 | 1011.1 |
| 20260904090024 | 8 | 111 | 0.0 | 1.6 | 0.00 | 0.00 | 0.00 | 72 | 1011.3 |
| 20260904084522 | 8 | 66 | 0.0 | 0.0 | 0.00 | 0.00 | 0.00 | 73 | 1011.4 |
| 20260904083022 | 9 | 65 | 0.0 | 3.2 | 0.00 | 0.00 | 0.00 | 70 | 1011.5 |
| 20260904081520 | 9 | 65 | 0.0 | 0.0 | 0.00 | 0.00 | 0.00 | 70 | 1011.4 |
| 20260904080017 | 10 | 65 | 0.0 | 1.6 | 0.00 | 0.00 | 0.00 | 67 | 1011.5 |
| 20260904074516 | 10 | 13 | 0.0 | 1.6 | 0.00 | 0.03 | 0.00 | 70 | 1011.8 |
| 20260904073015 | 10 | 13 | 0.0 | 1.6 | 0.00 | 0.03 | 0.00 | 70 | 1011.6 |
| 20260904071514 | 10 | 13 | 0.0 | 0.0 | 0.00 | 0.03 | 0.00 | 71 | 1011.8 |
| 20260904070014 | 10 | 13 | 0.0 | 0.0 | 0.00 | 0.03 | 0.00 | 67 | 1011.7 |
| 20260904064511 | 10 | 13 | 0.0 | 0.0 | 0.00 | 0.03 | 0.00 | 68 | 1011.6 |
| 20260904063010 | 10 | 13 | 0.0 | 0.0 | 0.00 | 0.03 | 0.00 | 67 | 1011.9 |
| 20260904061507 | 10 | 304 | 0.0 | 1.6 | 0.00 | 0.03 | 0.00 | 67 | 1011.9 |
| 20260904060006 | 11 | 12 | 0.0 | 1.6 | 0.00 | 0.03 | 0.00 | 66 | 1012.1 |
| 20260904054507 | 12 | 94 | 0.0 | 1.6 | 0.00 | 0.03 | 0.03 | 63 | 1012.3 |
| 20260904053003 | 12 | 94 | 0.0 | 1.6 | 0.00 | 0.03 | 0.03 | 61 | 1012.4 |
| 20260904051506 | 12 | 125 | 0.0 | 3.2 | 0.00 | 0.03 | 0.03 | 62 | 1012.3 |
| 20260904050002 | 12 | 61 | 0.0 | 0.0 | 0.00 | 0.03 | 0.03 | 63 | 1012.2 |
| 20260904044502 | 12 | 45 | 0.0 | 1.6 | 0.00 | 0.03 | 0.03 | 62 | 1012.1 |
| 20260904043000 | 10 | 300 | 0.0 | 1.6 | 0.00 | 0.03 | 0.03 | 65 | 1011.9 |
| 20260904041605 | 11 | 300 | 0.0 | 3.2 | 0.00 | 0.03 | 0.03 | 62 | 1012.1 |
| 20260904041500 | 11 | 300 | 0.0 | 3.2 | 0.00 | 0.03 | 0.03 | 62 | 1012.1 |
| 20260904040100 | 11 | 26 | 1.6 | 1.6 | 0.00 | 0.03 | 0.03 | 62 | 1012.2 |
| 20260904034559 | 10 | 337 | 0.0 | 1.6 | 0.00 | 0.03 | 0.03 | 64 | 1012.2 |
| 20260904033101 | 10 | 283 | 0.0 | 1.6 | 0.00 | 0.03 | 0.03 | 65 | 1012.3 |
| 20260904031557 | 11 | 16 | 0.0 | 0.0 | 0.00 | 0.03 | 0.03 | 59 | 1012.2 |
| 20260904030054 | 11 | 16 | 0.0 | 3.2 | 0.00 | 0.03 | 0.03 | 61 | 1012.1 |
| 20260904024555 | 12 | 39 | 1.6 | 3.2 | 0.00 | 0.03 | 0.03 | 58 | 1012.1 |
| 20260904023054 | 12 | 25 | 0.0 | 1.6 | 0.00 | 0.03 | 0.03 | 57 | 1012.0 |
| 20260904021556 | 13 | 328 | 1.6 | 4.8 | 0.00 | 0.03 | 0.03 | 54 | 1011.7 |
| 20260904020049 | 15 | 240 | 0.0 | 6.4 | 0.00 | 0.03 | 0.03 | 50 | 1011.6 |
| 20260904014623 | 16 | 290 | 6.4 | 9.7 | 0.00 | 0.03 | 0.03 | 48 | 1011.5 |
| 20260904013055 | 18 | 256 | 1.6 | 6.4 | 0.00 | 0.03 | 0.03 | 42 | 1011.8 |
| 20260904011547 | 19 | 246 | 0.0 | 3.2 | 0.00 | 0.03 | 0.03 | 39 | 1011.7 |
| 20260904010046 | 20 | 242 | 3.2 | 11.3 | 0.00 | 0.03 | 0.03 | 37 | 1011.4 |
| 20260904004543 | 20 | 283 | 4.8 | 11.3 | 0.00 | 0.18 | 0.03 | 35 | 1011.3 |
| 20260904003042 | 21 | 248 | 6.4 | 17.7 | 0.00 | 0.18 | 0.03 | 35 | 1011.4 |
| 20260904001542 | 21 | 303 | 8.0 | 17.7 | 0.00 | 0.18 | 0.03 | 34 | 1011.4 |
| 20260904000118 | 21 | 275 | 8.0 | 19.3 | 0.00 | 0.18 | 0.03 | 35 | 1011.2 |
| 20260903234538 | 21 | 285 | 12.9 | 22.5 | 0.00 | 0.18 | 0.03 | 36 | 1010.9 |
| 20260903233036 | 21 | 254 | 11.3 | 24.1 | 0.00 | 0.18 | 0.03 | 37 | 1011.0 |
| 20260903231536 | 22 | 237 | 12.9 | 22.5 | 0.00 | 0.18 | 0.03 | 37 | 1010.9 |
| 20260903230036 | 22 | 274 | 12.9 | 24.1 | 0.00 | 0.18 | 0.03 | 37 | 1010.8 |
| 20260903224544 | 22 | 258 | 9.7 | 20.9 | 0.00 | 0.18 | 0.03 | 38 | 1010.6 |